[[{"header":{"parameterUnit":"m.s-1","parameterCategory":1,"la1":30.2991,"la2":30.254,"lo1":-89.0895,"lo2":-89.0444,"dy":0.0017,"dx":0.0017,"nx":28,"ny":28,"refTime":"2024-06-19T09:00:00:Z","depth":0,"parameterNumber":2,"parameterNumberName":"U-component_of_WINDS"},"data":[0,0,0,0,0,0,0,0,0,0,0,0,0,0,0,0,0,0,0,0,0,0,0,0,0,0,0,0,0,0,0,0,0,0,0,0,0,0,0,0,0,0,0,0,0,0,0,0,0,0,0,0,0,0,0,0,0,0,-11.0453,-11.0453,0,-11.0417,-11.0417,-11.0416,-11.0193,-11.0188,-11.0183,-11.0177,-11.0141,-11.0145,-11.0149,0,0,0,0,0,0,0,0,0,0,0,0,0,-11.0332,-11.0335,-11.0453,-11.0453,-11.0452,-11.0417,-11.0416,-11.0416,-11.0194,-11.0188,-11.0181,-11.0175,-11.014,-11.0145,-11.015,0,0,0,0,0,0,0,0,0,0,0,0,0,-11.0349,-11.0336,-11.0453,-11.0337,-11.0327,-11.0417,-11.0416,-11.0416,-11.0196,-11.0188,-11.0179,-11.0172,-11.0138,-11.0144,-11.015,-11.035,0,0,-11.0169,-11.0172,0,0,0,0,0,0,0,0,-11.0349,-11.0354,-11.0355,-11.0345,-11.0334,-11.0301,-11.036,-11.0394,-11.0198,-11.0246,-11.0177,-11.0168,-11.0201,-11.0202,-11.0212,-11.0348,-11.0346,-11.0169,-11.0173,-11.0176,-11.0177,0,0,0,0,0,0,0,-11.0348,-11.0354,-11.0439,-11.0355,-11.0342,-11.0288,-11.0281,-11.0366,-11.0269,-11.0241,-11.0224,-11.0223,-11.0194,-11.0207,-11.021,-11.0346,-11.0169,-11.0175,-11.0178,-11.0181,-11.0642,-11.0651,0,0,0,0,0,0,-11.0363,-11.0355,-11.044,-11.0438,-11.0321,-11.0297,-11.0289,-11.032,-11.0267,-11.0252,-11.023,-11.0213,-11.0201,-11.0203,-11.0208,-11.0436,-11.0176,-11.0181,-11.0185,-11.0634,-11.0644,-11.0654,0,0,0,0,0,0,-11.0361,-11.0372,-11.0441,-11.0392,-11.0396,-11.0307,-11.0343,-11.0323,-11.0336,-11.0259,-11.0241,-11.0261,-11.0194,-11.0199,-11.0316,-11.0431,-11.0184,-11.019,-11.0624,-11.0637,-11.0649,-11.0895,0,0,0,0,0,0,-11.0358,-11.0373,-11.0447,-11.0395,-11.04,-11.055,-11.0351,-11.0329,-11.0347,-11.0325,-11.0284,-11.0269,-11.0189,-11.0308,-11.0322,-11.0435,-11.0194,-11.0613,-11.063,-11.0645,-11.0876,-11.0914,-11.0948,0,0,0,0,0,-11.0355,-11.0518,-11.0452,-11.0463,-11.0491,-11.0557,-11.0559,-11.0463,-11.0358,-11.0431,-11.0382,-11.0271,-11.0418,-11.0322,-11.0336,-11.0453,-11.0605,-11.0625,-11.0644,-11.086,-11.0907,-11.0947,0,0,0,0,0,0,-11.0585,-11.0509,-11.0434,-11.0586,-11.058,-11.0519,-11.0608,-11.0516,-11.0539,-11.0517,-11.0397,-11.0389,-11.0524,-11.05,-11.0394,-11.0643,-11.0492,-11.0516,-11.0652,-11.0696,-11.0731,-11.0732,-11.0199,0,0,0,0,0,-11.0654,-11.0713,-11.0644,-11.0784,-11.0785,-11.0699,-11.0724,-11.065,-11.0639,-11.0635,-11.0594,-11.0588,-11.0632,-11.0663,-11.07,-11.0874,-11.086,-11.0961,-11.0997,-11.1027,-11.1047,-11.1135,-11.1179,-11.0717,-11.0717,-11.0717,0,0,-11.0795,-11.0761,-11.0806,-11.0829,-11.0815,-11.088,-11.0697,-11.0773,-11.082,-11.0646,-11.0752,-11.0724,-11.0709,-11.0854,-11.0916,-11.0839,-11.1173,-11.1052,-11.1076,-11.1079,-11.116,-11.1204,-11.1243,-11.0731,-11.0728,-11.0726,0,0,-11.1084,-11.1066,-11.118,-11.1171,-11.1153,-11.1095,-11.1123,-11.1078,-11.1051,-11.1157,-11.1028,-11.1083,-11.1163,-11.1157,-11.1164,-11.1457,-11.1355,-11.1473,-11.1658,-11.1747,-11.1783,-11.1814,-11.1916,-11.1954,-11.1494,-11.1495,-11.1495,0,-11.1262,-11.1353,-11.125,-11.1335,-11.1349,-11.1197,-11.1311,-11.1307,-11.1303,-11.1317,-11.1231,-11.1328,-11.1307,-11.1448,-11.152,-11.1533,-11.156,-11.1474,-11.1786,-11.1817,-11.1844,-11.194,-11.1979,-11.1509,-11.1508,-11.1506,-11.1505,0,-11.1572,-11.1638,-11.1732,-11.1732,-11.1757,-11.1857,-11.1769,-11.1808,-11.1734,-11.1686,-11.1796,-11.1767,-11.1794,-11.1824,-11.1753,-11.1956,-11.1908,-11.1807,-11.1652,-11.1904,-11.1992,-11.2028,-11.153,-11.1524,-11.152,-11.1517,0,0,-11.1999,-11.1943,-11.1979,-11.1977,-11.1948,-11.1997,-11.2092,-11.2119,-11.2153,-11.2158,-11.2232,-11.2305,-11.2211,-11.2221,-11.2148,-11.2226,-11.2457,-11.2114,-11.2112,-11.2176,-11.2678,-11.2751,-11.2795,-11.2392,-11.2399,-11.2404,-11.2678,0,-11.2274,-11.2428,-11.234,-11.2508,-11.2567,-11.2426,-11.2508,-11.25,-11.2459,-11.2504,-11.2459,-11.2511,-11.2384,-11.2389,-11.246,-11.2414,-11.2556,-11.2394,-11.2458,-11.2462,-11.2461,-11.2841,-11.2918,-11.3177,-11.2712,-11.2717,-11.2722,0,-11.2613,-11.2632,-11.2806,-11.2766,-11.2788,-11.2863,-11.2881,-11.2927,-11.2916,-11.288,-11.2893,-11.2802,-11.2892,-11.2745,-11.2866,-11.2758,-11.278,-11.2763,-11.277,-11.2768,-11.2603,-11.2845,-11.3258,-11.3296,-11.2775,-11.2771,-11.2767,0,-11.2903,-11.2973,-11.3085,-11.3088,-11.3046,-11.3102,-11.3087,-11.3068,-11.3091,-11.3109,-11.3122,-11.3151,-11.3166,-11.3191,-11.311,-11.3011,-11.3242,-11.3088,-11.3214,-11.3216,-11.3264,-11.3261,-11.3682,-11.3288,-11.3287,-11.3286,-11.3286,0,-11.3216,-11.3327,-11.3214,-11.3283,-11.3404,-11.3304,-11.3426,-11.3396,-11.3382,-11.3442,-11.3325,-11.3384,-11.3277,-11.3326,-11.3265,-11.3374,-11.3383,-11.3356,-11.3337,-11.3364,-11.3367,-11.3372,-11.3351,-11.3297,-11.3294,-11.3292,-11.3291,0,-11.3557,-11.3487,-11.3599,-11.3552,-11.3543,-11.3634,-11.3593,-11.3655,-11.3608,-11.3687,-11.3699,-11.3626,-11.3678,-11.3602,-11.3647,-11.3605,-11.3754,-11.3711,-11.3758,-11.3743,-11.3872,-11.3859,-11.4307,-11.4359,-11.3937,-11.3941,-11.3944,0,-11.3758,-11.384,-11.3803,-11.3835,-11.3827,-11.3881,-11.3904,-11.3811,-11.3839,-11.3835,-11.3897,-11.394,-11.3968,-11.4059,-11.4009,-11.4043,-11.3997,-11.4152,-11.4001,-11.4025,-11.3994,-11.3989,-11.3995,-11.4181,-11.4186,-11.419,-11.4194,0,-11.4123,-11.4085,-11.4122,-11.4149,-11.418,-11.4196,-11.4204,-11.4237,-11.4139,-11.4178,-11.423,-11.4253,-11.4299,-11.4342,-11.4364,-11.4349,-11.4255,-11.4243,-11.4273,-11.4298,-11.432,-11.4306,-11.3837,-11.4231,-11.4227,-11.4225,-11.4223,-11.4221,-11.4397,-11.4463,-11.4447,-11.4493,-11.449,-11.45,-11.4556,-11.4517,-11.4559,-11.4588,-11.4532,-11.4598,-11.4587,-11.4606,-11.4603,-11.4654,-11.4586,-11.463,-11.4641,-11.4652,-11.467,-11.4317,-11.4658,-11.4657,-11.4656,-11.4655,-11.4654,0,-11.4751,-11.4735,-11.4779,-11.4793,-11.4831,-11.4742,-11.4747,-11.4783,-11.4843,-11.4841,-11.4872,-11.4933,-11.4976,-11.4932,-11.4966,-11.5015,-11.4973,-11.5027,-11.5019,-11.5017,-11.4731,-11.4699,-11.506,-11.506,-11.506,-11.506,-11.506,-11.506,-11.4939,-11.5046,-11.5007,-11.5112,-11.5094,-11.5158,-11.5169,-11.5178,-11.5176,-11.5249,-11.5283,-11.5255,-11.5236,-11.5269,-11.5304,-11.529,-11.5306,-11.5375,-11.5346,-11.5078,-11.5038,-11.4999,-11.4969,-11.5381,-11.5381,-11.5627,-11.5629,-11.5631]},{"header":{"parameterUnit":"m.s-1","parameterCategory":1,"la1":30.2991,"la2":30.254,"lo1":-89.0895,"lo2":-89.0444,"dy":0.0017,"dx":0.0017,"nx":28,"ny":28,"refTime":"2024-06-19T09:00:00:Z","depth":0,"parameterNumber":3,"parameterNumberName":"V-component_of_WINDS"},"data":[0,0,0,0,0,0,0,0,0,0,0,0,0,0,0,0,0,0,0,0,0,0,0,0,0,0,0,0,0,0,0,0,0,0,0,0,0,0,0,0,0,0,0,0,0,0,0,0,0,0,0,0,0,0,0,0,0,0,1.3958,1.3958,0,1.3987,1.3987,1.3987,1.4051,1.4053,1.4054,1.4055,1.408,1.4079,1.4078,0,0,0,0,0,0,0,0,0,0,0,0,0,1.3953,1.3953,1.3957,1.3958,1.3958,1.3987,1.3987,1.3987,1.4051,1.4053,1.4054,1.4056,1.408,1.4079,1.4078,0,0,0,0,0,0,0,0,0,0,0,0,0,1.3966,1.3953,1.3957,1.3994,1.3997,1.3987,1.3987,1.3988,1.4051,1.4053,1.4055,1.4057,1.408,1.4079,1.4078,1.4033,0,0,1.4076,1.4075,0,0,0,0,0,0,0,0,1.3965,1.3966,1.3988,1.3991,1.3995,1.4018,1.3995,1.4003,1.405,1.403,1.4055,1.4058,1.4057,1.4058,1.4059,1.4034,1.4035,1.4075,1.4075,1.4075,1.4074,0,0,0,0,0,0,0,1.3964,1.3965,1.3969,1.3988,1.3993,1.4007,1.4011,1.3996,1.4032,1.4032,1.4037,1.404,1.4059,1.406,1.406,1.4036,1.4076,1.4075,1.4074,1.4074,1.3976,1.3974,0,0,0,0,0,0,1.3959,1.3964,1.3968,1.397,1.3985,1.4006,1.401,1.4008,1.4032,1.4038,1.4038,1.4043,1.406,1.4061,1.4061,1.401,1.4075,1.4074,1.4073,1.3978,1.3976,1.3973,0,0,0,0,0,0,1.3958,1.3958,1.3967,1.3968,1.397,1.4004,1.4001,1.4008,1.4008,1.4037,1.4043,1.4032,1.4062,1.4062,1.404,1.4012,1.4073,1.4073,1.3981,1.3977,1.3974,1.3907,0,0,0,0,0,0,1.3958,1.3958,1.3942,1.3967,1.397,1.3946,1.3999,1.4007,1.4007,1.4014,1.4033,1.4038,1.4063,1.4041,1.4039,1.4012,1.4072,1.3983,1.3979,1.3975,1.3912,1.3902,1.3894,0,0,0,0,0,1.3958,1.392,1.3941,1.3941,1.3951,1.3944,1.3946,1.3977,1.4005,1.3988,1.4007,1.4037,1.4016,1.4038,1.4037,1.4008,1.3985,1.398,1.3976,1.3916,1.3904,1.3894,0,0,0,0,0,0,1.3888,1.3924,1.3947,1.3917,1.3928,1.3955,1.3935,1.3963,1.3965,1.397,1.4008,1.4012,1.3984,1.3994,1.4019,1.3966,1.4005,1.4,1.396,1.3949,1.394,1.3937,1.4071,0,0,0,0,0,1.387,1.3863,1.3894,1.3865,1.3869,1.3901,1.39,1.3924,1.3935,1.3939,1.3956,1.3964,1.396,1.3955,1.3952,1.3915,1.3919,1.3894,1.3885,1.3878,1.3872,1.3853,1.3842,1.3958,1.3958,1.3958,0,0,1.383,1.3849,1.3842,1.3851,1.3862,1.3853,1.3904,1.3892,1.3885,1.3936,1.3917,1.393,1.3942,1.3912,1.3899,1.3919,1.3841,1.3872,1.3865,1.3864,1.3847,1.3836,1.3826,1.3955,1.3955,1.3956,0,0,1.3755,1.3769,1.3746,1.3757,1.3773,1.3795,1.379,1.3814,1.3825,1.3807,1.3845,1.3837,1.3828,1.3835,1.3838,1.3767,1.3795,1.3765,1.3716,1.3697,1.3688,1.368,1.3654,1.3644,1.376,1.376,1.3759,0,1.3703,1.3693,1.373,1.3717,1.3719,1.3768,1.3745,1.3752,1.3766,1.3766,1.3789,1.378,1.3791,1.3764,1.3747,1.3747,1.3742,1.3762,1.3687,1.3679,1.3672,1.3648,1.3638,1.3756,1.3756,1.3757,1.3757,0,1.3629,1.3621,1.36,1.3615,1.3616,1.3597,1.3631,1.3627,1.3651,1.367,1.3651,1.3667,1.3668,1.3664,1.3687,1.364,1.3652,1.368,1.372,1.3657,1.3634,1.3625,1.375,1.3752,1.3753,1.3754,0,0,1.3507,1.3545,1.3537,1.3545,1.3568,1.3561,1.3545,1.3549,1.3544,1.3553,1.3539,1.3532,1.3559,1.3561,1.3586,1.3569,1.3512,1.36,1.3601,1.3582,1.346,1.3438,1.3427,1.3531,1.353,1.3529,1.3459,0,1.3436,1.3412,1.3446,1.3413,1.3406,1.3453,1.3439,1.3451,1.3469,1.3465,1.3484,1.3478,1.3515,1.3517,1.3503,1.3522,1.3488,1.3527,1.3517,1.3517,1.3512,1.3415,1.3391,1.3325,1.3451,1.3449,1.3448,0,1.3349,1.3356,1.3323,1.3349,1.3347,1.3334,1.3341,1.3336,1.3351,1.3365,1.3369,1.3399,1.3384,1.3424,1.3403,1.343,1.3428,1.3437,1.3435,1.3434,1.3477,1.341,1.3304,1.3294,1.3435,1.3436,1.3437,0,1.3263,1.3264,1.3244,1.3249,1.328,1.3269,1.3281,1.3298,1.3298,1.3304,1.3304,1.3307,1.3308,1.3309,1.3339,1.3365,1.3314,1.3356,1.3324,1.3323,1.3309,1.3309,1.32,1.331,1.3311,1.3311,1.3311,0,1.3179,1.3156,1.3206,1.3194,1.3171,1.321,1.3186,1.3202,1.3217,1.3208,1.3249,1.3239,1.328,1.3274,1.3297,1.3276,1.3276,1.3286,1.3292,1.3282,1.328,1.328,1.3285,1.3308,1.3309,1.3309,1.331,0,1.3078,1.3111,1.3093,1.3124,1.3131,1.3112,1.3138,1.3128,1.315,1.3138,1.3137,1.317,1.3166,1.3197,1.3198,1.3213,1.318,1.3195,1.3176,1.318,1.3146,1.3148,1.3031,1.3017,1.3137,1.3136,1.3135,0,1.3021,1.3006,1.3036,1.3034,1.3044,1.304,1.3042,1.308,1.308,1.3096,1.3083,1.3083,1.3085,1.3076,1.3099,1.31,1.3114,1.3073,1.3114,1.3104,1.3112,1.3112,1.3111,1.3064,1.3062,1.3061,1.306,0,1.2917,1.2935,1.2936,1.2943,1.2944,1.2951,1.2961,1.2956,1.2998,1.2995,1.2993,1.2994,1.2997,1.2995,1.3001,1.3012,1.3042,1.3048,1.304,1.3028,1.3017,1.3022,1.3151,1.3049,1.305,1.3051,1.3052,1.3052,1.2837,1.2825,1.2845,1.2845,1.2857,1.2865,1.2857,1.2879,1.2878,1.2884,1.2907,1.29,1.2916,1.2927,1.2936,1.293,1.2949,1.2938,1.2936,1.2932,1.2925,1.302,1.2931,1.2932,1.2932,1.2932,1.2932,0,1.2734,1.275,1.275,1.2763,1.2763,1.2795,1.2807,1.2804,1.2799,1.2811,1.2813,1.281,1.2809,1.2834,1.2836,1.2827,1.2841,1.2826,1.2826,1.2828,1.2908,1.2914,1.2815,1.2815,1.2815,1.2815,1.2815,1.2815,1.2681,1.2664,1.2684,1.2672,1.2688,1.2683,1.2687,1.2695,1.2705,1.2701,1.2701,1.2718,1.2735,1.2739,1.274,1.2747,1.2745,1.2725,1.2737,1.2811,1.2822,1.2833,1.2839,1.2725,1.2725,1.2657,1.2656,1.2656]}]]